Regional Weather Roundup
Issued by NWS

Home | Current Version | Previous Version | Graphics & Text | Print | Product List | Glossary On
Versions: 1 2 3 4 5 6 7 8 9 10 11 12 13 14 15 16 17 18 19 20 21 22 23 24 25 26 27 28 29 30 31 32 33 34 35 36 37 38 39 40 41 42 43 44 45 46 47 48 49 50
000
ASUS43 KBIS 271020
RWRND

NORTH DAKOTA REGIONAL WEATHER ROUNDUP
NATIONAL WEATHER SERVICE BISMARCK ND
400 AM CST THU NOV 27 2014

NOTE: "FAIR" INDICATES FEW OR NO CLOUDS BELOW 12,000 FEET WITH NO
SIGNIFICANT WEATHER AND/OR OBSTRUCTIONS TO VISIBILITY.


NDZ001>003-009>011-017-271100-
NORTHWEST NORTH DAKOTA

CITY           SKY/WX    TMP DP  RH WIND       PRES   REMARKS
WILLISTON      PTCLDY     2  -1  88 CALM      30.26F
MINOT          CLOUDY   -10 -16  74 CALM      30.36F
MINOT AFB      CLOUDY    -4  -9  77 SE3       30.36F
$$

NDZ018>021-031>035-040>046-271100-
SOUTHWEST NORTH DAKOTA

CITY           SKY/WX    TMP DP  RH WIND       PRES   REMARKS
BISMARCK       CLOUDY    -9 -13  83 NE7       30.43F WCI -24
DICKINSON      CLOUDY    11   8  88 S15       30.22F WCI  -5
GARRISON         N/A      8   5  87 S13       30.35F WCI  -8
HETTINGER ARPT CLOUDY    11   8  88 SE7       30.27F WCI   0
$$

NDZ004>008-012>016-024-026-027-054-271100-
NORTHEAST NORTH DAKOTA

CITY           SKY/WX    TMP DP  RH WIND       PRES   REMARKS
GRAND FORKS    PTCLDY   -15 -20  78 SW3       30.54F
GRND FRKS AFB  PTCLDY   -14 -20  76 SW2       30.53F
DEVILS LAKE    MOCLDY    -6 -17  59 S6        30.41F WCI -18
$$

NDZ022-023-025-028>030-036>039-047>053-271100-
SOUTHEAST NORTH DAKOTA

CITY           SKY/WX    TMP DP  RH WIND       PRES   REMARKS
FARGO          PTCLDY   -11 -19  68 CALM      30.55F
JAMESTOWN      CLOUDY   -26 -30  81 CALM      30.46F
$$




USA.gov is the U.S. government's official web portal to all federal, state and local government web resources and services.